CES5472 ZUCK-ZSJN

Flight info

Callsign CES5472
Flight time 1h 42m
Altitude 33100
Route OVNUL W677 IGIRO W4 WXI W59 UBSIS
Aircraft B77W/H-SDE1E2E3FGHIJ2J3J4J5M1RWXY/LB1D1

Departure

Time 2026-05-05 06:32
Airport Chongqing Jiangbei International Airport (ZUCK)

Arrival

Time 2026-05-05 08:15
Airport Jinan Yaoqiang International Airport (ZSJN)
Time Latitude Longitude Altitude Speed Heading
2026-05-05 06:09 29.71570 106.64956 1359 ft 0 kts 89°
2026-05-05 06:19 29.71570 106.64954 1359 ft 2 kts 89°
2026-05-05 06:20 29.71571 106.64924 1372 ft 4 kts 92°
2026-05-05 06:20 29.71571 106.64897 1359 ft 4 kts 100°
2026-05-05 06:20 29.71578 106.64875 1357 ft 4 kts 134°
2026-05-05 06:20 29.71592 106.64864 1358 ft 4 kts 177°
2026-05-05 06:21 29.71618 106.64866 1360 ft 4 kts 183°
2026-05-05 06:21 29.71628 106.64866 1359 ft 0 kts 180°
2026-05-05 06:22 29.71616 106.64866 1363 ft 4 kts 180°
2026-05-05 06:22 29.71573 106.64866 1360 ft 8 kts 180°
2026-05-05 06:23 29.71505 106.64865 1361 ft 11 kts 183°
2026-05-05 06:23 29.71430 106.64851 1360 ft 11 kts 193°
2026-05-05 06:23 29.71358 106.64820 1361 ft 11 kts 219°
2026-05-05 06:23 29.71346 106.64763 1364 ft 7 kts 276°
2026-05-05 06:24 29.71351 106.64741 1362 ft 0 kts 284°
2026-05-05 06:25 29.71354 106.64729 1361 ft 2 kts 284°
2026-05-05 06:25 29.71358 106.64711 1362 ft 2 kts 284°
2026-05-05 06:25 29.71366 106.64674 1362 ft 10 kts 285°
2026-05-05 06:26 29.71319 106.64565 1362 ft 21 kts 203°
2026-05-05 06:26 29.71176 106.64514 1363 ft 22 kts 196°
2026-05-05 06:26 29.71031 106.64464 1363 ft 22 kts 197°
2026-05-05 06:26 29.70888 106.64415 1363 ft 22 kts 195°
2026-05-05 06:27 29.70747 106.64369 1363 ft 17 kts 197°
2026-05-05 06:27 29.70567 106.64309 1364 ft 11 kts 196°
2026-05-05 06:27 29.70541 106.64300 1363 ft 0 kts 196°
2026-05-05 06:28 29.70537 106.64299 1363 ft 2 kts 196°
2026-05-05 06:29 29.70505 106.64288 1364 ft 7 kts 196°
2026-05-05 06:29 29.70449 106.64259 1365 ft 9 kts 226°
2026-05-05 06:29 29.70450 106.64188 1363 ft 9 kts 284°
2026-05-05 06:29 29.70467 106.64116 1367 ft 9 kts 290°
2026-05-05 06:30 29.70522 106.64086 1366 ft 9 kts
2026-05-05 06:30 29.70577 106.64100 1366 ft 0 kts 16°
2026-05-05 06:31 29.70578 106.64100 1366 ft 2 kts 16°
2026-05-05 06:31 29.70742 106.64157 1364 ft 62 kts 17°
2026-05-05 06:32 29.71443 106.64399 1362 ft 146 kts 16°
2026-05-05 06:32 29.72630 106.64819 1463 ft 201 kts 18°
2026-05-05 06:32 29.74019 106.65299 2151 ft 212 kts 17°
2026-05-05 06:32 29.75459 106.65785 3025 ft 218 kts 19°
2026-05-05 06:33 29.76948 106.66314 3764 ft 237 kts 19°
2026-05-05 06:33 29.78650 106.66900 4161 ft 271 kts 18°
2026-05-05 06:33 29.80499 106.67531 5099 ft 280 kts 18°
2026-05-05 06:33 29.82391 106.68174 6151 ft 288 kts 17°
2026-05-05 06:34 29.84340 106.68836 7156 ft 294 kts 17°
2026-05-05 06:34 29.86316 106.69510 8258 ft 298 kts 16°
2026-05-05 06:34 29.88321 106.70199 9373 ft 302 kts 15°
2026-05-05 06:34 29.90357 106.70890 10407 ft 308 kts 14°
2026-05-05 06:35 29.92471 106.71606 11026 ft 329 kts 15°
2026-05-05 06:35 29.94771 106.72388 11277 ft 360 kts 15°
2026-05-05 06:35 29.97271 106.73254 11609 ft 386 kts 15°
2026-05-05 06:35 29.99873 106.74171 12404 ft 396 kts 15°
2026-05-05 06:36 30.02526 106.75112 13389 ft 400 kts 16°
2026-05-05 06:36 30.05188 106.76058 14399 ft 402 kts 15°
2026-05-05 06:36 30.07871 106.77008 15427 ft 402 kts 15°
2026-05-05 06:36 30.10556 106.77955 16391 ft 405 kts 15°
2026-05-05 06:37 30.13261 106.78918 17312 ft 408 kts 15°
2026-05-05 06:37 30.15969 106.79946 18192 ft 411 kts 16°
2026-05-05 06:37 30.18697 106.80979 18933 ft 415 kts 15°
2026-05-05 06:37 30.21472 106.81961 19607 ft 420 kts 14°
2026-05-05 06:38 30.24257 106.82927 20228 ft 426 kts 14°
2026-05-05 06:38 30.27105 106.83917 20925 ft 430 kts 14°
2026-05-05 06:38 30.29985 106.84927 21610 ft 434 kts 14°
2026-05-05 06:38 30.32894 106.85955 22267 ft 439 kts 14°
2026-05-05 06:39 30.35831 106.87023 22862 ft 446 kts 17°
2026-05-05 06:39 30.38603 106.88668 23285 ft 453 kts 30°
2026-05-05 06:39 30.41220 106.90776 23652 ft 461 kts 31°
2026-05-05 06:39 30.43850 106.92926 24139 ft 465 kts 31°
2026-05-05 06:40 30.46516 106.95070 24756 ft 466 kts 30°
2026-05-05 06:40 30.49193 106.97183 25358 ft 467 kts 30°
2026-05-05 06:40 30.51907 106.99296 25906 ft 471 kts 30°
2026-05-05 06:40 30.54635 107.01414 26427 ft 475 kts 29°
2026-05-05 06:41 30.57391 107.03560 26929 ft 478 kts 30°
2026-05-05 06:41 30.60134 107.05777 27433 ft 483 kts 31°
2026-05-05 06:41 30.62874 107.08058 27951 ft 486 kts 31°
2026-05-05 06:41 30.65624 107.10376 28426 ft 489 kts 31°
2026-05-05 06:42 30.68384 107.12705 28866 ft 492 kts 31°
2026-05-05 06:42 30.71174 107.15052 29312 ft 495 kts 31°
2026-05-05 06:42 30.73934 107.17366 29748 ft 497 kts 31°
2026-05-05 06:42 30.76745 107.19718 30206 ft 497 kts 31°
2026-05-05 06:43 30.79546 107.22062 30792 ft 493 kts 31°
2026-05-05 06:43 30.82318 107.24385 31482 ft 487 kts 31°
2026-05-05 06:43 30.85044 107.26669 32160 ft 482 kts 31°
2026-05-05 06:43 30.87758 107.28942 32763 ft 478 kts 30°
2026-05-05 06:44 30.90465 107.31208 32946 ft 480 kts 31°
2026-05-05 06:44 30.95877 107.35748 32933 ft 476 kts 31°
2026-05-05 06:45 31.01243 107.40257 32935 ft 478 kts 31°
2026-05-05 06:45 31.06828 107.44606 32934 ft 485 kts 25°
2026-05-05 06:46 31.12797 107.48429 32934 ft 493 kts 24°
2026-05-05 06:46 31.18802 107.52262 32932 ft 491 kts 24°
2026-05-05 06:47 31.24768 107.56130 32913 ft 489 kts 24°
2026-05-05 06:47 31.30699 107.59992 32928 ft 487 kts 24°
2026-05-05 06:48 31.36632 107.63847 32926 ft 487 kts 24°
2026-05-05 06:48 31.42506 107.67666 32930 ft 486 kts 24°
2026-05-05 06:49 31.48428 107.71520 32926 ft 486 kts 24°
2026-05-05 06:49 31.54346 107.75378 32936 ft 486 kts 24°
2026-05-05 06:50 31.60261 107.79243 32923 ft 486 kts 25°
2026-05-05 06:50 31.65905 107.83665 32928 ft 492 kts 34°
2026-05-05 06:51 31.71188 107.88827 32932 ft 493 kts 35°
2026-05-05 06:51 31.76453 107.94000 32918 ft 493 kts 34°
2026-05-05 06:52 31.80833 107.98271 32913 ft 491 kts 34°
2026-05-05 06:52 31.86957 108.04215 32922 ft 491 kts 34°
2026-05-05 06:53 31.92221 108.09332 32926 ft 491 kts 34°
2026-05-05 06:53 31.97482 108.14460 32927 ft 491 kts 34°
2026-05-05 06:54 32.02740 108.19593 32928 ft 490 kts 34°
2026-05-05 06:54 32.07007 108.24070 32919 ft 496 kts 43°
2026-05-05 06:55 32.10912 108.30817 32902 ft 508 kts 57°
2026-05-05 06:55 32.13425 108.38703 32934 ft 516 kts 66°
2026-05-05 06:56 32.15619 108.46766 32904 ft 515 kts 66°
2026-05-05 06:56 32.17895 108.54785 32914 ft 515 kts 65°
2026-05-05 06:57 32.20208 108.62792 32914 ft 515 kts 65°
2026-05-05 06:57 32.21623 108.66622 32909 ft 504 kts 54°
2026-05-05 06:57 32.23635 108.69950 32917 ft 493 kts 43°
2026-05-05 06:58 32.28795 108.74985 32910 ft 474 kts 26°
2026-05-05 06:58 32.34496 108.78925 32910 ft 476 kts 25°
2026-05-05 06:59 32.40219 108.82938 32907 ft 480 kts 26°
2026-05-05 06:59 32.45941 108.87029 32906 ft 481 kts 26°
2026-05-05 07:00 32.51671 108.91156 32890 ft 481 kts 26°
2026-05-05 07:00 32.57355 108.95260 32876 ft 477 kts 26°
2026-05-05 07:01 32.63013 108.99340 32898 ft 476 kts 26°
2026-05-05 07:01 32.68634 109.03398 32905 ft 475 kts 26°
2026-05-05 07:02 32.74284 109.07486 32890 ft 476 kts 26°
2026-05-05 07:02 32.79932 109.11580 32903 ft 475 kts 26°
2026-05-05 07:03 32.85573 109.15675 32906 ft 475 kts 27°
2026-05-05 07:03 32.91221 109.19779 32900 ft 476 kts 27°
2026-05-05 07:04 32.96872 109.23891 32914 ft 476 kts 26°
2026-05-05 07:04 33.02509 109.28006 32921 ft 475 kts 27°
2026-05-05 07:05 33.08146 109.32131 32920 ft 475 kts 26°
2026-05-05 07:05 33.13782 109.36263 32918 ft 476 kts 26°
2026-05-05 07:06 33.19428 109.40405 32926 ft 476 kts 26°
2026-05-05 07:06 33.25030 109.44526 32919 ft 475 kts 26°
2026-05-05 07:07 33.30633 109.48655 32926 ft 471 kts 26°
2026-05-05 07:07 33.36205 109.52769 32918 ft 468 kts 28°
2026-05-05 07:07 33.38719 109.55299 32919 ft 480 kts 43°
2026-05-05 07:08 33.40654 109.58608 32923 ft 494 kts 55°
2026-05-05 07:08 33.42035 109.62424 32912 ft 508 kts 67°
2026-05-05 07:08 33.42663 109.66629 32924 ft 516 kts 76°
2026-05-05 07:09 33.43380 109.75252 32918 ft 523 kts 78°
2026-05-05 07:09 33.44099 109.83945 32915 ft 525 kts 77°
2026-05-05 07:10 33.44907 109.92626 32909 ft 525 kts 77°
2026-05-05 07:10 33.45750 110.01314 32916 ft 524 kts 77°
2026-05-05 07:11 33.46576 110.09919 32910 ft 522 kts 77°
2026-05-05 07:11 33.47395 110.18552 32895 ft 521 kts 77°
2026-05-05 07:12 33.48207 110.27186 32894 ft 520 kts 77°
2026-05-05 07:12 33.49009 110.35794 32904 ft 519 kts 77°
2026-05-05 07:13 33.50092 110.44271 32878 ft 505 kts 64°
2026-05-05 07:13 33.51642 110.47964 32902 ft 490 kts 49°
2026-05-05 07:13 33.53845 110.51031 32889 ft 482 kts 38°
2026-05-05 07:13 33.56452 110.53486 32890 ft 474 kts 26°
2026-05-05 07:14 33.59374 110.55212 32891 ft 467 kts 20°
2026-05-05 07:14 33.65319 110.58462 32885 ft 470 kts 20°
2026-05-05 07:15 33.71252 110.61789 32889 ft 471 kts 20°
2026-05-05 07:15 33.77141 110.65155 32885 ft 471 kts 21°
2026-05-05 07:16 33.83049 110.68554 32881 ft 470 kts 21°
2026-05-05 07:16 33.88941 110.71947 32887 ft 469 kts 21°
2026-05-05 07:17 33.94830 110.75342 32885 ft 468 kts 21°
2026-05-05 07:17 34.00702 110.78728 32875 ft 468 kts 21°
2026-05-05 07:18 34.06574 110.82124 32871 ft 467 kts 21°
2026-05-05 07:18 34.12433 110.85515 32870 ft 467 kts 21°
2026-05-05 07:19 34.18300 110.88917 32864 ft 468 kts 21°
2026-05-05 07:19 34.24179 110.92331 32852 ft 469 kts 21°
2026-05-05 07:20 34.30066 110.95756 32845 ft 469 kts 21°
2026-05-05 07:20 34.35953 110.99185 32833 ft 469 kts 21°
2026-05-05 07:21 34.41526 111.03293 32840 ft 479 kts 34°
2026-05-05 07:21 34.46148 111.09221 32826 ft 493 kts 49°
2026-05-05 07:22 34.49781 111.16320 32826 ft 497 kts 53°
2026-05-05 07:22 34.53309 111.23526 32839 ft 497 kts 53°
2026-05-05 07:23 34.56880 111.30706 32836 ft 497 kts 52°
2026-05-05 07:23 34.60482 111.37859 32817 ft 497 kts 52°
2026-05-05 07:24 34.64080 111.44999 32816 ft 496 kts 52°
2026-05-05 07:24 34.67656 111.52114 32849 ft 496 kts 52°
2026-05-05 07:25 34.71248 111.59278 32853 ft 496 kts 52°
2026-05-05 07:25 34.74842 111.66464 32836 ft 497 kts 52°
2026-05-05 07:26 34.78429 111.73653 32842 ft 497 kts 52°
2026-05-05 07:26 34.82009 111.80843 32844 ft 498 kts 53°
2026-05-05 07:27 34.85598 111.88064 32841 ft 498 kts 53°
2026-05-05 07:27 34.89181 111.95265 32857 ft 496 kts 52°
2026-05-05 07:28 34.92797 112.02443 32859 ft 497 kts 52°
2026-05-05 07:28 34.96418 112.09632 32855 ft 498 kts 52°
2026-05-05 07:29 35.00037 112.16850 32860 ft 498 kts 53°
2026-05-05 07:29 35.03641 112.24064 32862 ft 498 kts 53°
2026-05-05 07:30 35.07225 112.31251 32870 ft 499 kts 53°
2026-05-05 07:30 35.12631 112.42118 32871 ft 499 kts 53°
2026-05-05 07:31 35.16229 112.49370 32866 ft 500 kts 53°
2026-05-05 07:31 35.19833 112.56649 32874 ft 499 kts 53°
2026-05-05 07:32 35.23447 112.63893 32886 ft 498 kts 53°
2026-05-05 07:32 35.27090 112.71125 32877 ft 500 kts 53°
2026-05-05 07:33 35.30731 112.78373 32881 ft 499 kts 53°
2026-05-05 07:33 35.34358 112.85621 32902 ft 499 kts 53°
2026-05-05 07:34 35.37975 112.92876 32905 ft 499 kts 53°
2026-05-05 07:34 35.41569 113.00095 32906 ft 499 kts 53°
2026-05-05 07:35 35.45180 113.07361 32917 ft 499 kts 53°
2026-05-05 07:35 35.48788 113.14641 32926 ft 499 kts 53°
2026-05-05 07:36 35.52387 113.21916 32926 ft 498 kts 53°
2026-05-05 07:36 35.55985 113.29205 32931 ft 499 kts 53°
2026-05-05 07:37 35.59573 113.36488 32940 ft 498 kts 53°
2026-05-05 07:37 35.63173 113.43754 32943 ft 497 kts 53°
2026-05-05 07:38 35.66840 113.50983 32942 ft 498 kts 52°
2026-05-05 07:38 35.70487 113.58158 32926 ft 498 kts 53°
2026-05-05 07:39 35.74138 113.65392 32927 ft 498 kts 53°
2026-05-05 07:39 35.77788 113.72647 32903 ft 497 kts 53°
2026-05-05 07:40 35.81422 113.79892 32897 ft 497 kts 53°
2026-05-05 07:40 35.85049 113.87138 32884 ft 496 kts 53°
2026-05-05 07:41 35.88643 113.94330 32877 ft 496 kts 53°
2026-05-05 07:41 35.92257 114.01572 32875 ft 496 kts 53°
2026-05-05 07:42 35.95867 114.08828 32867 ft 496 kts 53°
2026-05-05 07:42 35.99482 114.16108 32857 ft 496 kts 53°
2026-05-05 07:43 36.03089 114.23388 32858 ft 497 kts 53°
2026-05-05 07:43 36.06090 114.29455 32840 ft 497 kts 53°
2026-05-05 07:44 36.09686 114.36741 32829 ft 497 kts 53°
2026-05-05 07:44 36.13279 114.44038 32838 ft 497 kts 53°
2026-05-05 07:45 36.16877 114.51359 32830 ft 497 kts 53°
2026-05-05 07:45 36.20465 114.58676 32833 ft 497 kts 53°
2026-05-05 07:46 36.24028 114.65960 32829 ft 497 kts 53°
2026-05-05 07:46 36.27607 114.73289 32828 ft 497 kts 53°
2026-05-05 07:47 36.31126 114.80679 32830 ft 498 kts 54°
2026-05-05 07:47 36.34593 114.88125 32826 ft 499 kts 57°
2026-05-05 07:48 36.37351 114.96089 32825 ft 507 kts 67°
2026-05-05 07:48 36.39199 115.04579 32821 ft 510 kts 70°
2026-05-05 07:49 36.40087 115.08843 32709 ft 510 kts 70°
2026-05-05 07:49 36.40997 115.13091 32191 ft 505 kts 70°
2026-05-05 07:49 36.41907 115.17259 31673 ft 495 kts 70°
2026-05-05 07:49 36.42843 115.21277 31179 ft 485 kts 67°
2026-05-05 07:50 36.44035 115.25143 30690 ft 474 kts 62°
2026-05-05 07:50 36.45366 115.28863 30206 ft 470 kts 61°
2026-05-05 07:50 36.46699 115.32555 29722 ft 467 kts 62°
2026-05-05 07:50 36.48023 115.36231 29172 ft 465 kts 62°
2026-05-05 07:51 36.49337 115.39901 28633 ft 463 kts 62°
2026-05-05 07:51 36.50641 115.43560 28104 ft 461 kts 62°
2026-05-05 07:51 36.51934 115.47200 27583 ft 459 kts 62°
2026-05-05 07:51 36.53218 115.50824 27071 ft 457 kts 63°
2026-05-05 07:52 36.54494 115.54431 26555 ft 455 kts 63°
2026-05-05 07:52 36.55764 115.58023 26075 ft 452 kts 63°
2026-05-05 07:52 36.57026 115.61599 25587 ft 450 kts 63°
2026-05-05 07:52 36.58169 115.64841 25152 ft 448 kts 63°
2026-05-05 07:53 36.59414 115.68375 24677 ft 445 kts 63°
2026-05-05 07:53 36.60653 115.71894 24205 ft 442 kts 63°
2026-05-05 07:53 36.61883 115.75393 23748 ft 440 kts 63°
2026-05-05 07:53 36.63103 115.78864 23295 ft 437 kts 63°
2026-05-05 07:54 36.64318 115.82325 22757 ft 434 kts 64°
2026-05-05 07:54 36.65521 115.85756 22251 ft 429 kts 64°
2026-05-05 07:54 36.66709 115.89147 21715 ft 425 kts 63°
2026-05-05 07:54 36.67865 115.92445 21218 ft 421 kts 64°
2026-05-05 07:55 36.69035 115.95787 20702 ft 417 kts 64°
2026-05-05 07:55 36.70187 115.99088 20232 ft 413 kts 64°
2026-05-05 07:55 36.71331 116.02365 19741 ft 410 kts 64°
2026-05-05 07:55 36.72468 116.05618 19259 ft 407 kts 64°
2026-05-05 07:56 36.73589 116.08838 18795 ft 404 kts 64°
2026-05-05 07:56 36.74705 116.12042 18340 ft 401 kts 64°
2026-05-05 07:56 36.75812 116.15225 17857 ft 399 kts 64°
2026-05-05 07:56 36.76911 116.18392 17320 ft 396 kts 64°
2026-05-05 07:57 36.78001 116.21534 16828 ft 394 kts 64°
2026-05-05 07:57 36.79083 116.24660 16316 ft 391 kts 65°
2026-05-05 07:57 36.80114 116.27778 15804 ft 388 kts 70°
2026-05-05 07:57 36.80548 116.31073 15294 ft 381 kts 87°
2026-05-05 07:58 36.80622 116.34367 14841 ft 379 kts 88°
2026-05-05 07:58 36.80693 116.37640 14377 ft 378 kts 88°
2026-05-05 07:58 36.80773 116.40873 13913 ft 376 kts 88°
2026-05-05 07:58 36.80865 116.44132 13439 ft 375 kts 88°
2026-05-05 07:59 36.80967 116.47422 12922 ft 374 kts 88°
2026-05-05 07:59 36.81072 116.50615 12415 ft 373 kts 88°
2026-05-05 07:59 36.81180 116.53840 11927 ft 372 kts 89°
2026-05-05 07:59 36.81287 116.57054 11435 ft 371 kts 89°
2026-05-05 08:00 36.81396 116.60325 11329 ft 383 kts 89°
2026-05-05 08:00 36.81504 116.63648 11166 ft 382 kts 89°
2026-05-05 08:00 36.81613 116.66950 10798 ft 379 kts 90°
2026-05-05 08:00 36.81720 116.70200 10623 ft 368 kts 90°
2026-05-05 08:01 36.81823 116.73325 10535 ft 354 kts 90°
2026-05-05 08:01 36.81991 116.76328 10419 ft 339 kts 81°
2026-05-05 08:01 36.82843 116.79017 10315 ft 331 kts 57°
2026-05-05 08:01 36.84342 116.81141 10202 ft 322 kts 43°
2026-05-05 08:02 36.85989 116.82991 10011 ft 316 kts 42°
2026-05-05 08:02 36.87623 116.84801 9734 ft 314 kts 42°
2026-05-05 08:02 36.89258 116.86612 9395 ft 313 kts 42°
2026-05-05 08:02 36.90859 116.88393 9088 ft 312 kts 42°
2026-05-05 08:03 36.92494 116.90220 8736 ft 311 kts 42°
2026-05-05 08:03 36.94081 116.92001 8402 ft 310 kts 43°
2026-05-05 08:03 36.95684 116.93803 8081 ft 310 kts 43°
2026-05-05 08:03 36.97264 116.95583 7631 ft 300 kts 43°
2026-05-05 08:04 36.98811 116.97329 6853 ft 301 kts 43°
2026-05-05 08:04 37.00385 116.99106 6146 ft 311 kts 43°
2026-05-05 08:04 37.01983 117.00910 5942 ft 305 kts 43°
2026-05-05 08:04 37.03570 117.02581 5827 ft 291 kts 31°
2026-05-05 08:05 37.05422 117.03427 5753 ft 277 kts
2026-05-05 08:05 37.07299 117.03506 5682 ft 264 kts 356°
2026-05-05 08:05 37.09093 117.03551 5551 ft 253 kts
2026-05-05 08:05 37.10628 117.04457 5494 ft 238 kts 43°
2026-05-05 08:06 37.11531 117.06084 5289 ft 222 kts 71°
2026-05-05 08:06 37.11913 117.07880 5004 ft 211 kts 91°
2026-05-05 08:06 37.11948 117.09722 4664 ft 208 kts 97°
2026-05-05 08:06 37.11930 117.11508 4342 ft 207 kts 97°
2026-05-05 08:07 37.11920 117.13299 4030 ft 205 kts 96°
2026-05-05 08:07 37.11913 117.15088 3714 ft 205 kts 96°
2026-05-05 08:07 37.11908 117.16879 3419 ft 206 kts 96°
2026-05-05 08:07 37.11907 117.18660 3221 ft 200 kts 97°
2026-05-05 08:08 37.11592 117.20222 3040 ft 174 kts 132°
2026-05-05 08:08 37.10773 117.21146 2973 ft 150 kts 157°
2026-05-05 08:08 37.09790 117.21441 2944 ft 148 kts 183°
2026-05-05 08:08 37.08719 117.21503 2899 ft 156 kts 181°
2026-05-05 08:09 37.07641 117.21560 2900 ft 154 kts 182°
2026-05-05 08:09 37.06591 117.21590 2918 ft 146 kts 184°
2026-05-05 08:09 37.05627 117.21598 2914 ft 131 kts 185°
2026-05-05 08:09 37.04709 117.21596 2905 ft 132 kts 184°
2026-05-05 08:10 37.03802 117.21597 2911 ft 130 kts 184°
2026-05-05 08:10 37.02911 117.21603 2884 ft 127 kts 184°
2026-05-05 08:10 37.02007 117.21604 2857 ft 133 kts 184°
2026-05-05 08:10 37.01087 117.21603 2667 ft 131 kts 184°
2026-05-05 08:11 37.00181 117.21600 2516 ft 130 kts 185°
2026-05-05 08:11 36.99269 117.21599 2361 ft 132 kts 185°
2026-05-05 08:11 36.98358 117.21597 2162 ft 128 kts 185°
2026-05-05 08:11 36.97484 117.21602 2033 ft 126 kts 185°
2026-05-05 08:12 36.96611 117.21603 1839 ft 123 kts 185°
2026-05-05 08:12 36.95757 117.21603 1678 ft 123 kts 185°
2026-05-05 08:12 36.94889 117.21601 1540 ft 128 kts 185°
2026-05-05 08:12 36.93981 117.21600 1371 ft 131 kts 185°
2026-05-05 08:13 36.93082 117.21600 1194 ft 127 kts 184°
2026-05-05 08:13 36.92210 117.21602 1037 ft 125 kts 184°
2026-05-05 08:13 36.91347 117.21602 865 ft 125 kts 185°
2026-05-05 08:13 36.90463 117.21600 711 ft 127 kts 185°
2026-05-05 08:14 36.89571 117.21598 566 ft 132 kts 182°
2026-05-05 08:14 36.88679 117.21618 371 ft 124 kts 182°
2026-05-05 08:14 36.87815 117.21599 231 ft 122 kts 184°
2026-05-05 08:14 36.86970 117.21604 102 ft 117 kts 182°
2026-05-05 08:15 36.86260 117.21596 92 ft 80 kts 180°
2026-05-05 08:15 36.85876 117.21595 95 ft 31 kts 180°
2026-05-05 08:15 36.85713 117.21594 94 ft 22 kts 182°
2026-05-05 08:15 36.85561 117.21562 93 ft 22 kts 200°
2026-05-05 08:16 36.85434 117.21480 90 ft 19 kts 208°
2026-05-05 08:16 36.85392 117.21395 89 ft 12 kts 266°
2026-05-05 08:16 36.85383 117.21292 89 ft 12 kts 252°
2026-05-05 08:16 36.85351 117.21194 90 ft 12 kts 245°
2026-05-05 08:17 36.85316 117.21102 90 ft 12 kts 245°
2026-05-05 08:17 36.85303 117.21003 89 ft 12 kts 268°
2026-05-05 08:17 36.85303 117.20903 89 ft 7 kts 270°
2026-05-05 08:17 36.85302 117.20876 89 ft 0 kts 269°